sat.trackr.live / text

‹ back to catalog

STARLINK-6147

NORAD 57120 · 2023-090V

PAYLOAD ACTIVE UNKNOWN

§ Identity

Operator
Country
US
Launch date
2023-06-23
Launch site
AFETR
Launch vehicle
Mass (kg)
RCS (m²)

Purposes: comms

External: N2YO · Heavens-Above · Gunter

§ Orbital elements

Epoch: 2026-05-25T04:38:18.248064Z

Period
94.27 min
Inclination
43.0016°
Eccentricity
0.0001008
Mean motion
15.27577075 rev/d
Perigee alt
482.4 km
Apogee alt
483.7 km
Semi-major
6,861.2 km
B*
3.2420e-5
RAAN
209.4083°
Arg perigee
285.9104°
Mean anomaly
74.1637°
Rev number
16,203

§ Raw data

STARLINK-61471 57120U 23090V   26145.19326676  .00000630  00000+0  32420-4 0  99902 57120  43.0016 209.4083 0001008 285.9104  74.1637 15.27577075162031

JSON: /api/v1/satellites/57120 · /tle

For live sub-satellite position, see the globe view (requires WebGL).

§ Visibility from observer

Set your observer location to see the next 7 days of passes ≥ 10°. The values pass through the URL so the page stays shareable.

No JS? Fill the form by hand. The geolocation button needs JavaScript.